Location: Bonny Doon Airfield
(37.0704°N, 122.1252°W)
Time: 01:40:54
(UTC-08:00)

Vanguard 2 - All Passes

Search period start: 11 December 2017 00:00
Search period end: 21 December 2017 00:00
Orbit: 553 x 2939 km, 32.9° (Epoch: 10 December)

Date Brightness Start Highest point End Pass type
(mag) Time Alt. Az. Time Alt. Az. Time Alt. Az.
11 Dec - 14:28:23 10° SSW 14:34:28 22° SSE 14:38:53 10° ESE daylight
11 Dec - 16:37:15 10° WSW 16:43:02 42° S 16:47:09 10° E daylight
11 Dec - 18:46:43 10° W 18:51:01 46° S 18:54:47 10° ESE visible
11 Dec - 20:55:43 10° WSW 20:58:45 21° SSW 21:02:06 10° SSE night (unlit)
12 Dec - 12:39:46 10° S 12:43:16 12° SSE 12:46:18 10° SE daylight
12 Dec - 14:45:34 10° SW 14:52:37 29° SSE 14:57:24 10° ESE daylight
12 Dec - 16:55:16 10° WSW 17:01:05 49° S 17:05:13 10° E daylight
12 Dec - 19:04:53 10° W 19:09:00 40° SSW 19:12:43 10° ESE visible
12 Dec - 21:14:32 10° WSW 21:16:43 14° SSW 21:19:04 10° S night (unlit)
13 Dec - 12:54:55 10° SSW 13:01:30 18° SSE 13:06:29 10° ESE daylight
13 Dec - 15:03:08 10° SW 15:10:44 37° SSE 15:15:42 10° E daylight
13 Dec - 17:13:24 10° WSW 17:19:08 53° S 17:23:15 10° ESE visible
13 Dec - 19:23:07 10° W 19:26:58 32° SSW 19:30:31 10° SE visible
14 Dec - 13:11:23 10° SSW 13:19:42 25° SSE 13:25:29 10° ESE daylight
14 Dec - 15:20:59 10° WSW 15:28:51 46° S 15:33:51 10° E daylight
14 Dec - 17:31:35 10° W 17:37:10 53° S 17:41:14 10° ESE visible
14 Dec - 19:41:29 10° WSW 19:44:52 23° SSW 19:48:05 10° SSE visible
15 Dec - 11:22:19 10° S 11:27:56 14° SSE 11:32:37 10° ESE daylight
15 Dec - 13:28:29 10° SW 13:37:53 33° SSE 13:44:02 10° E daylight
15 Dec - 15:39:01 10° WSW 15:46:56 53° S 15:51:55 10° E daylight
15 Dec - 17:49:47 10° W 17:55:11 48° S 17:59:10 10° ESE visible
15 Dec - 20:00:07 10° WSW 20:02:45 16° SSW 20:05:17 10° SSE visible
16 Dec - 11:37:30 10° SSW 11:46:10 20° SSE 11:52:41 10° ESE daylight
16 Dec - 13:45:59 10° SW 13:56:03 41° SSE 14:02:20 10° E daylight
16 Dec - 15:57:10 10° WSW 16:05:01 58° S 16:09:56 10° E daylight
16 Dec - 18:08:03 10° W 18:13:09 40° SSW 18:17:00 10° SE visible
16 Dec - 20:20:06 10° SW 20:20:34 10° SSW 20:21:02 10° SSW visible
17 Dec - 11:53:51 10° SSW 12:04:23 27° SSE 12:11:44 10° ESE daylight
17 Dec - 14:03:47 10° WSW 14:14:12 49° SSE 14:20:30 10° E daylight
17 Dec - 16:15:25 10° W 16:23:05 60° S 16:27:56 10° ESE daylight
17 Dec - 18:26:22 10° W 18:31:02 31° SSW 18:34:42 10° SE visible
18 Dec - 10:05:04 10° S 10:12:03 15° SSE 10:17:58 10° ESE daylight
18 Dec - 12:10:48 10° SW 12:22:35 35° SSE 12:30:20 10° E daylight
18 Dec - 14:21:48 10° WSW 14:32:20 57° S 14:38:35 10° E daylight
18 Dec - 16:33:41 10° W 16:41:08 57° S 16:45:53 10° ESE daylight
18 Dec - 18:44:51 10° W 18:48:52 23° SSW 18:52:08 10° SSE visible
19 Dec - 10:20:01 10° S 10:30:15 21° SSE 10:38:14 10° ESE daylight
19 Dec - 12:28:11 10° SW 12:40:45 43° SSE 12:48:41 10° E daylight
19 Dec - 14:39:58 10° WSW 14:50:27 62° S 14:56:37 10° E daylight
19 Dec - 16:51:59 10° W 16:59:08 51° SSW 17:03:46 10° ESE daylight
19 Dec - 19:03:43 10° WSW 19:06:36 15° SSW 19:09:07 10° S visible
20 Dec - 10:36:08 10° SSW 10:48:25 28° SSE 10:57:27 10° E daylight
20 Dec - 12:45:53 10° SW 12:58:55 51° SSE 13:06:54 10° E daylight
20 Dec - 14:58:15 10° WSW 15:08:34 65° S 15:14:38 10° E daylight
20 Dec - 17:10:20 10° W 17:17:04 42° SSW 17:21:34 10° SE daylight
